Regional Weather Roundup
Issued by NWS

Home | Current Version | Previous Version | Graphics & Text | Print | Product List | Glossary On
Versions: 1 2 3 4 5 6 7 8 9 10 11 12 13 14 15 16 17 18 19 20 21 22 23 24 25 26 27 28 29 30 31 32 33 34 35 36 37 38 39 40 41 42 43 44 45 46 47 48 49 50
000
ASUS43 KDMX 211807
RWRIA

WEATHER ROUNDUP FOR IOWA
NATIONAL WEATHER SERVICE DES MOINES IA
100 PM CDT TUE OCT 21 2014

NOTE: "FAIR" INDICATES FEW OR NO CLOUDS BELOW 12,000 FEET WITH NO
SIGNIFICANT WEATHER AND/OR OBSTRUCTIONS TO VISIBILITY.

* - THESE STATIONS ARE NOT NWS STATIONS...THUS NOT UNDER NWS
QUALITY CONTROL.  THEY ALSO DO NOT REPORT WEATHER SUCH
AS PRECIPITATION OR FOG.

IAZ001>003-012>014-020>022-031>034-043>046-211900-
   NORTHWEST IOWA

CITY           SKY/WX    TMP DP  RH WIND       PRES   REMARKS
CARROLL *      SUNNY     68  41  37 SE10      30.11F
CHEROKEE *     SUNNY     68  42  38 S8        30.09F
DENISON *      SUNNY     70  41  35 S7        30.08F
LE MARS *      SUNNY     70  41  35 S14       30.06F
ORANGE CITY *  SUNNY     70  36  28 S12       30.07F
SHELDON *      SUNNY     70  41  35 S16       30.06F
SIOUX CITY     SUNNY     71  42  35 SE9       30.07F
6HR MIN TEMP:  37; 6HR MAX TEMP:  71;

SPENCER        SUNNY     66  43  43 SE14      30.10F
6HR MIN TEMP:  30; 6HR MAX TEMP:  66;

STORM LAKE *   SUNNY     66  41  39 SE10G16   30.11F
$$

IAZ055>058-069>071-079>083-090>094-211900-
   SOUTHWEST IOWA

CITY           SKY/WX    TMP DP  RH WIND       PRES   REMARKS
ATLANTIC *     SUNNY     70  41  35 VRB6      30.10F
AUDUBON *      SUNNY     70  37  30 S6        30.12F
CLARINDA *     SUNNY     70  43  37 VRB5      30.12F
COUNCIL BLFS * SUNNY     70  45  40 S9        30.09F
CRESTON *      SUNNY     68  41  37 NE5       30.12F HAZE
HARLAN  *      SUNNY     70  41  35 S8        30.13F
LAMONI         SUNNY     67  46  47 E3        30.13F
6HR MIN TEMP:  42; 6HR MAX TEMP:  68;

RED OAK *      SUNNY     70  43  37 S6G12     30.11F
SHENANDOAH *   SUNNY     72  41  33 CALM      30.11F
$$

IAZ047>049-059>061-072>074-084-211900-
   CENTRAL IOWA

CITY           SKY/WX    TMP DP  RH WIND       PRES   REMARKS
AMES           SUNNY     61  42  49 SE5       30.15F
6HR MIN TEMP:  35; 6HR MAX TEMP:  62;

ANKENY *       SUNNY     63  46  55 SE9       30.15F
CHARITON *     SUNNY     63  46  55 E7        30.14F
DES MOINES     SUNNY     63  43  48 E9        30.15F
6HR MIN TEMP:  43; 6HR MAX TEMP:  64;

GRINNELL*      SUNNY     59  42  52 E8        30.17F
KNOXVILLE *    SUNNY     61  45  55 E7        30.14F
MARSHALLTOWN   SUNNY     59  43  55 SE8       30.16F
6HR MIN TEMP:  36; 6HR MAX TEMP:  59;

PELLA *        SUNNY     62  44  51 SE9       30.17F
PERRY *          N/A     66  45  45 SE7       30.13F
$$

IAZ004>006-015-016-023>025-035-036-211900-
   NORTH CENTRAL IOWA

CITY           SKY/WX    TMP DP  RH WIND       PRES   REMARKS
ALGONA *       SUNNY     63  43  48 SE12      30.13F
CLARION *      SUNNY     63  43  48 S8G15     30.15F
ESTHERVILLE    SUNNY     63  41  44 S13       30.11F
6HR MIN TEMP:  30; 6HR MAX TEMP:  63;

FORT DODGE *   SUNNY     63  45  51 S6        30.14F
MASON CITY     SUNNY     59  42  53 SE10      30.17F
6HR MIN TEMP:  30; 6HR MAX TEMP:  59;

FOREST CITY *  SUNNY     59  45  58 SE12      30.15F
IOWA FALLS *     N/A     59  43  55 S9        30.17F
$$

IAZ007>011-017>019-026>030-037>042-050>054-066-211900-
   NORTHEAST IOWA

CITY           SKY/WX    TMP DP  RH WIND       PRES   REMARKS
CEDAR RAPIDS   SUNNY     57  42  57 E6        30.18F
6HR MIN TEMP:  37; 6HR MAX TEMP:  57;

CHARLES CITY * SUNNY     57  41  54 E8G15     30.18F
CLINTON *      SUNNY     55  37  50 NE13      30.22F
DECORAH *      SUNNY     54  39  58 VRB5      30.19F
DUBUQUE        SUNNY     53  38  56 NE6       30.20F
6HR MIN TEMP:  38; 6HR MAX TEMP:  53;

MONTICELLO *   SUNNY     57  41  54 NE8       30.19F
OELWEIN *      SUNNY     55  39  54 E8        30.20F
WATERLOO       SUNNY     58  41  53 E9        30.18F
6HR MIN TEMP:  33; 6HR MAX TEMP:  58;

$$

IAZ064-065-067-068-078-211900-
   EAST CENTRAL IOWA

CITY           SKY/WX    TMP DP  RH WIND       PRES   REMARKS
DAVENPORT      SUNNY     57  38  48 NE12      30.20F
6HR MIN TEMP:  37; 6HR MAX TEMP:  57;

IOWA CITY      SUNNY     58  42  55 E8        30.20F
6HR MIN TEMP:  37; 6HR MAX TEMP:  58;

MT. PLEASANT * SUNNY     59  40  50 NE5       30.18F
MUSCATINE *    SUNNY     59  41  51 E9G15     30.19F
QUAD CITIES    SUNNY     57  40  52 NE6       30.19S
6HR MIN TEMP:  36; 6HR MAX TEMP:  58;

$$

IAZ062-063-075>077-085>089-095>099-211900-
   SOUTHEAST IOWA

CITY           SKY/WX    TMP DP  RH WIND       PRES   REMARKS
BURLINGTON     SUNNY     59  44  57 N10       30.17F
6HR MIN TEMP:  40; 6HR MAX TEMP:  59;

FAIRFIELD *    SUNNY     59  43  55 NE8       30.17F
FORT MADISON * SUNNY     63  43  48 NE7       30.17F
KEOKUK *       SUNNY     61  43  51 VRB6G12   30.16F
OSKALOOSA *      N/A     60  43  52 E5        30.17F
CENTERVILLE *  SUNNY     63  46  55 E8        30.16F
WASHINGTON *   SUNNY     59  41  51 E8G17     30.17F
$$

ABBREVIATIONS USED IN REMARKS
   TC - TEMPERATURES IN CELSIUS
  WCI - WIND CHILL INDEX
   HX - HEAT INDEX
  VSB - VISIBILITY
$$




USA.gov is the U.S. government's official web portal to all federal, state and local government web resources and services.